This demonstration page uses our WeatherBlox Daily Observations layout. Learn more.

Left ArrowRight Arrow

41.12389, -100.76542

Hourly Observations for July 20, 2016

Temp ( °F °C ) Dew Point ( °F °C ) Humidity (%) Winds ( mph kmh ) Pressure ( in mb ) Visibility ( mi km ) Precip ( " mm )
12:53 am 00:53 Clear 80 26.7 62 16.7 54 54 S 13 20 29.93 1014 10 16 0.00 0.00
1:53 am 01:53 Clear 77 25 62 16.7 60 60 SSW 10 17 29.94 1014 10 16 0.00 0.00
2:53 am 02:53 Clear 75 23.9 62 16.7 64 64 S 3 6 29.93 1013 10 16 0.00 0.00
3:53 am 03:53 Clear 73 22.8 63 17.2 71 71 S 7 11 29.92 1013 10 16 0.00 0.00
4:53 am 04:53 Clear 72 22.2 63 17.2 73 73 SSE 7 11 29.91 1013 10 16 0.00 0.00
5:53 am 05:53 Clear 72 22.2 63 17.2 73 73 S 9 15 29.90 1013 10 16 0.00 0.00
6:53 am 06:53 Sunny 74 23.3 62 16.7 67 67 SSW 8 13 29.92 1013 10 16 0.00 0.00
7:53 am 07:53 Sunny 74 23.3 64 17.8 71 71 S 8 13 29.93 1013 10 16 0.00 0.00
8:53 am 08:53 Sunny 78 25.6 65 18.3 64 64 S 7 11 29.93 1014 10 16 0.00 0.00
9:53 am 09:53 Sunny 80 26.7 66 18.9 62 62 SSE 8 13 29.91 1013 10 16 0.00 0.00
10:53 am 10:53 Sunny 83 28.3 68 20 61 61 S 7 11 29.91 1013 10 16 0.00 0.00
11:53 am 11:53 Sunny 86 30 69 20.6 57 57 SE 7 11 29.91 1013 10 16 0.00 0.00
12:53 pm 12:53 Sunny 89 31.7 69 20.6 52 52 ESE 7 11 29.90 1013 10 16 0.00 0.00
1:53 pm 13:53 Sunny 92 33.3 71 21.7 51 51 SE 9 15 29.89 1012 10 16 0.00 0.00
2:53 pm 14:53 Sunny 92 33.3 69 20.6 47 47 SE 10 17 29.88 1012 10 16 0.00 0.00
3:53 pm 15:53 Sunny 92 33.3 70 21.1 49 49 S 9 15 29.88 1012 10 16 0.00 0.00
4:53 pm 16:53 Sunny 93 33.9 69 20.6 46 46 S 7 11 29.86 1011 10 16 0.00 0.00
5:53 pm 17:53 Sunny 93 33.9 69 20.6 46 46 S 8 13 29.85 1011 10 16 0.00 0.00
6:53 pm 18:53 Sunny 92 33.3 71 21.7 51 51 S 6 9 29.84 1010 10 16 0.00 0.00
7:53 pm 19:53 Sunny 91 32.8 75 23.9 59 59 Calm 29.83 1010 10 16 0.00 0.00
8:53 pm 20:53 Sunny 85 29.4 76 24.4 75 75 Calm 29.84 1010 10 16 0.00 0.00
9:53 pm 21:53 Clear 80 26.7 73 22.8 79 79 Calm 29.85 1011 10 16 0.00 0.00
10:53 pm 22:53 Clear 76 24.4 69 20.6 79 79 Calm 29.87 1011 10 16 0.00 0.00
11:53 pm 23:53 Clear 74 23.3 69 20.6 85 85 ESE 7 11 29.88 1012 10 16 0.00 0.00

Powered by AerisWeather